Weather History for Robstown, TX

Change the Weather History Date:

Monday, April 29, 2013

  Actual Average (KCRP) Record (KCRP)
Temperature  
Mean Temperature 76 °F 75 °F  
Max Temperature 85 °F 84 °F 96 °F (1953)
Min Temperature 67 °F 66 °F 50 °F (1996)
Degree Days  
Heating Degree Days 0 0  
Month to date heating degree days 15  
Since 1 July heating degree days 896  
Cooling Degree Days 11 10  
Month to date cooling degree days 227  
Year to date cooling degree days 418  
Growing Degree Days 26 (Base 50)    
Moisture  
Dew Point 67 °F    
Average Humidity 83    
Maximum Humidity 96    
Minimum Humidity 46    
Precipitation  
Precipitation 0.11 in 0.07 in 4.22 in (1904)
Month to date precipitation 1.76  
Year to date precipitation 7.12  
Snow  
Snow 0.00 in - - ()
Month to date snowfall  
Since 1 July snowfall  
Snow Depth -    
Sea Level Pressure  
Sea Level Pressure 29.86 in    
Wind  
Wind Speed 6 mph (East)    
Max Wind Speed 26 mph    
Max Gust Speed 39 mph    
Visibility 7 miles    
Events Fog , Rain , Thunderstorm    
T = Trace of Precipitation, MM = Missing Value Source: NWS Daily Summary

Daily Weather History Graph

Daily Weather History Graph

Search for Another Location

Airport:

Trip Planner

Search our weather history database for the weather conditions in past years. The results will help you decide how hot, cold, wet, or windy it might be!

Date:

Astronomy

Apr. 29, 2013 Rise Set
Actual Time 6:52 AM CDT 8:03 PM CDT
Civil Twilight 6:27 AM CDT 8:28 PM CDT
Nautical Twilight 5:58 AM CDT 8:57 PM CDT
Astronomical Twilight 5:28 AM CDT 9:28 PM CDT
Moon No Moon Rise 10:23 AM CDT (4/29)
Length of Visible Light 14h 00m
Length of Day
13h 11m
Waning Gibbous, 80% of the Moon is Illuminated
Apr 29
Waning Gibbous
May 2
Last Quarter
May 9
New
May 17
First Quarter
May 24
Full

Hourly Weather History & Observations

Time (CDT) Temp. Heat Index Dew Point Humidity Pressure Visibility Wind Dir Wind Speed Gust Speed Precip Events Conditions
12:15 AM 70.3 °F - 68.4 °F 93% 29.95 in 5.0 mi Calm Calm - N/A   Overcast
12:35 AM 70.3 °F - 68.4 °F 93% 29.94 in 5.0 mi Calm Calm - N/A   Overcast
12:55 AM 70.3 °F - 68.4 °F 93% 29.93 in 5.0 mi Calm Calm - N/A   Overcast
1:15 AM 70.5 °F - 68.7 °F 94% 29.92 in 4.0 mi ENE 4.6 mph - N/A   Overcast
1:35 AM 70.5 °F - 68.7 °F 94% 29.91 in 3.0 mi East 5.8 mph - N/A   Overcast
1:55 AM 70.2 °F - 68.4 °F 94% 29.89 in 4.0 mi East 6.9 mph - N/A   Mostly Cloudy
2:15 AM 70.2 °F - 68.4 °F 94% 29.88 in 5.0 mi East 5.8 mph - N/A   Scattered Clouds
2:35 AM 70.0 °F - 68.4 °F 95% 29.85 in 4.0 mi ENE 6.9 mph - N/A   Clear
2:55 AM 70.2 °F - 68.2 °F 93% 29.85 in 7.0 mi ENE 5.8 mph - N/A   Clear
3:15 AM 70.2 °F - 68.2 °F 93% 29.87 in 7.0 mi ENE 3.5 mph - N/A   Clear
3:35 AM 70.2 °F - 68.2 °F 93% 29.87 in 5.0 mi ENE 4.6 mph - N/A   Scattered Clouds
3:55 AM 70.2 °F - 68.2 °F 93% 29.87 in 4.0 mi Calm Calm - N/A   Scattered Clouds
4:15 AM 68.7 °F - 66.9 °F 94% 29.89 in 3.0 mi WSW 5.8 mph - N/A   Mist
4:35 AM 68.5 °F - 67.1 °F 95% 29.90 in 1.8 mi West 6.9 mph - N/A   Overcast
4:55 AM 68.9 °F - 67.3 °F 95% 29.90 in 0.5 mi West 3.5 mph - N/A Fog Fog
5:15 AM 69.3 °F - 67.6 °F 95% 29.90 in 0.5 mi SW 3.5 mph - N/A Fog Fog
5:35 AM 68.9 °F - 67.5 °F 95% 29.90 in 0.8 mi Calm Calm - N/A   Overcast
5:55 AM 68.9 °F - 67.3 °F 95% 29.90 in 0.8 mi Calm Calm - N/A   Overcast
6:15 AM 68.7 °F - 67.1 °F 95% 29.89 in 0.5 mi Calm Calm - N/A Fog Fog
6:35 AM 68.2 °F - 66.9 °F 96% 29.89 in 0.2 mi Calm Calm - N/A Fog Fog
6:55 AM 67.5 °F - 66.2 °F 96% 29.90 in 0.2 mi Calm Calm - N/A Fog Fog
7:15 AM 67.6 °F - 66.2 °F 95% 29.89 in 0.2 mi Calm Calm - N/A Fog Fog
7:35 AM 67.6 °F - 66.2 °F 95% 29.90 in 0.2 mi Calm Calm - N/A Fog Fog
7:55 AM 68.0 °F - 66.4 °F 95% 29.90 in 0.2 mi Calm Calm - N/A Fog Fog
8:15 AM 68.4 °F - 67.1 °F 96% 29.90 in 0.2 mi Calm Calm - N/A Fog Fog
8:35 AM 69.3 °F - 68.0 °F 96% 29.90 in 0.2 mi NNE 4.6 mph - N/A Fog Fog
8:55 AM 70.5 °F - 69.1 °F 95% 29.88 in 3.0 mi North 10.4 mph - N/A   Overcast
9:15 AM 71.1 °F - 69.8 °F 96% 29.89 in 7.0 mi North 6.9 mph - N/A   Mostly Cloudy
9:35 AM 72.7 °F - 69.4 °F 90% 29.89 in 10.0 mi NNE 5.8 mph - N/A   Scattered Clouds
9:55 AM 75.0 °F - 68.5 °F 80% 29.89 in 10.0 mi ENE 4.6 mph - N/A   Clear
10:15 AM 76.5 °F - 67.6 °F 74% 29.89 in 10.0 mi NE 3.5 mph - N/A   Clear
10:35 AM 78.8 °F - 66.6 °F 66% 29.89 in 10.0 mi ESE 5.8 mph - N/A   Scattered Clouds
10:55 AM 79.7 °F - 65.5 °F 62% 29.89 in 7.0 mi ESE 4.6 mph - N/A   Scattered Clouds
11:15 AM 80.4 °F 82.6 °F 66.4 °F 62% 29.90 in 10.0 mi ESE 5.8 mph - N/A   Scattered Clouds
11:35 AM 80.8 °F 82.8 °F 65.7 °F 60% 29.90 in 10.0 mi ESE 4.6 mph - N/A   Scattered Clouds
11:55 AM 81.1 °F 83.2 °F 66.2 °F 60% 29.90 in 10.0 mi East 3.5 mph - N/A   Scattered Clouds
12:15 PM 81.7 °F 83.3 °F 64.4 °F 56% 29.90 in 10.0 mi SSE 5.8 mph - N/A   Scattered Clouds
12:35 PM 81.5 °F 83.4 °F 65.3 °F 58% 29.89 in 10.0 mi East 6.9 mph - N/A   Mostly Cloudy
12:55 PM 81.1 °F 82.9 °F 65.3 °F 58% 29.89 in 10.0 mi ESE 8.1 mph - N/A   Overcast
1:15 PM 83.1 °F 84.6 °F 64.4 °F 53% 29.87 in 10.0 mi ESE 9.2 mph 16.1 mph N/A   Mostly Cloudy
1:35 PM 83.8 °F 85.8 °F 65.5 °F 54% 29.86 in 10.0 mi East 9.2 mph - N/A   Mostly Cloudy
1:55 PM 85.1 °F 86.4 °F 63.9 °F 49% 29.85 in 10.0 mi ESE 11.5 mph - N/A   Scattered Clouds
2:15 PM 85.8 °F 86.6 °F 62.8 °F 46% 29.84 in 10.0 mi SE 11.5 mph 18.4 mph N/A   Clear
2:35 PM 84.2 °F 85.0 °F 62.8 °F 48% 29.84 in 10.0 mi ESE 8.1 mph 16.1 mph N/A   Clear
2:55 PM 83.7 °F 84.9 °F 63.7 °F 51% 29.82 in 10.0 mi ESE 12.7 mph - N/A   Scattered Clouds
3:15 PM 80.4 °F 83.0 °F 67.6 °F 65% 29.82 in 10.0 mi ESE 9.2 mph 16.1 mph N/A Rain Light Rain
3:35 PM 77.9 °F - 69.4 °F 75% 29.81 in 7.0 mi ESE 13.8 mph - 0.03 in Rain Light Rain
3:55 PM 77.2 °F - 70.2 °F 79% 29.81 in 10.0 mi SE 13.8 mph - N/A Thunderstorm Unknown
4:15 PM 75.7 °F - 68.7 °F 79% 29.80 in 10.0 mi SSE 17.3 mph 20.7 mph N/A   Mostly Cloudy
4:35 PM 76.5 °F - 70.0 °F 80% 29.81 in 10.0 mi ESE 13.8 mph 17.3 mph N/A Thunderstorm Thunderstorm
4:55 PM 75.4 °F - 70.3 °F 84% 29.80 in 10.0 mi ESE 11.5 mph - N/A   Mostly Cloudy
5:15 PM 75.6 °F - 69.6 °F 82% 29.80 in 10.0 mi ESE 13.8 mph - N/A   Scattered Clouds
5:35 PM 75.2 °F - 69.3 °F 82% 29.80 in 10.0 mi ESE 11.5 mph - 0.01 in Rain Rain
5:55 PM 75.2 °F - 71.4 °F 88% 29.79 in 7.0 mi ESE 15.0 mph - 0.01 in Rain Light Rain
6:15 PM 75.2 °F - 71.8 °F 89% 29.79 in 7.0 mi East 10.4 mph - 0.02 in Rain , Thunderstorm Thunderstorms and Rain
6:35 PM 74.7 °F - 71.8 °F 91% 29.78 in 7.0 mi East 19.6 mph - 0.02 in Rain , Thunderstorm Light Thunderstorms and Rain
6:55 PM 74.3 °F - 71.6 °F 91% 29.78 in 7.0 mi East 13.8 mph - N/A Thunderstorm Thunderstorm
7:15 PM 72.0 °F - 67.1 °F 85% 29.82 in 7.0 mi NW 26.5 mph 38.0 mph N/A Thunderstorm Thunderstorm
7:35 PM 68.0 °F - 65.5 °F 92% 29.79 in 2.0 mi NNE 26.5 mph 39.1 mph 0.04 in Rain , Thunderstorm Light Thunderstorms and Rain
7:55 PM 69.8 °F - 66.6 °F 89% 29.80 in 10.0 mi NE 12.7 mph 19.6 mph N/A Rain , Thunderstorm Light Thunderstorms and Rain
8:15 PM 70.2 °F - 67.5 °F 91% 29.80 in 10.0 mi East 18.4 mph - 0.01 in Thunderstorm Thunderstorm
8:35 PM 68.9 °F - 64.8 °F 87% 29.81 in 10.0 mi East 9.2 mph - 0.01 in   Mostly Cloudy
8:55 PM 68.9 °F - 63.0 °F 81% 29.82 in 10.0 mi East 9.2 mph - N/A   Scattered Clouds
9:15 PM 69.1 °F - 64.9 °F 87% 29.82 in 10.0 mi ENE 9.2 mph - N/A   Clear
9:35 PM 70.2 °F - 67.1 °F 90% 29.83 in 10.0 mi East 13.8 mph - N/A Thunderstorm Mostly Cloudy
9:55 PM 70.0 °F - 66.2 °F 88% 29.82 in 10.0 mi East 10.4 mph - N/A Thunderstorm Mostly Cloudy
10:35 PM 70.2 °F - 66.7 °F 89% 29.83 in 10.0 mi East 10.4 mph - N/A Thunderstorm Scattered Clouds
10:55 PM 69.8 °F - 66.2 °F 88% 29.83 in 10.0 mi East 8.1 mph - N/A   Scattered Clouds
11:15 PM 69.6 °F - 66.2 °F 89% 29.83 in 10.0 mi East 6.9 mph - N/A Thunderstorm Thunderstorm
11:35 PM 69.3 °F - 65.8 °F 89% 29.83 in 10.0 mi East 10.4 mph - N/A Thunderstorm Clear
11:55 PM 69.1 °F - 65.7 °F 89% 29.84 in 10.0 mi East 6.9 mph - N/A   Scattered Clouds